CW3643 Weather Reports


time (UTC)temp
F
wind
direction
speed
knots
gust
knots
rain 1hr
in
rain 24hr
in
rain mn
in
humidity
%
barometer
mb
20260508142533 66 190 6.1 13.9 0.00 0.00 0.00 62 1008.0
20260508142119 66 190 6.1 17.4 0.00 0.00 0.00 61 1008.0
20260508141513 66 190 8.7 16.5 0.00 0.00 0.00 60 1008.1
20260508141011 66 243 5.2 15.6 0.00 0.00 0.00 59 1008.2
20260508140523 66 176 7.0 20.0 0.00 0.00 0.00 58 1008.3
20260508140009 66 190 12.2 20.0 0.00 0.00 0.00 55 1008.5
20260508135526 67 190 7.8 19.1 0.00 0.00 0.00 56 1008.3
20260508135024 67 190 7.0 18.2 0.00 0.00 0.00 57 1008.2
20260508134522 67 201 7.0 22.6 0.00 0.00 0.00 58 1008.4
20260508134026 66 172 16.5 22.6 0.00 0.00 0.00 58 1008.7
20260508133524 67 226 10.4 19.1 0.00 0.00 0.00 58 1008.5
20260508133029 67 190 12.2 18.2 0.00 0.00 0.00 57 1008.4
20260508132614 67 278 9.6 16.5 0.00 0.00 0.00 58 1008.5
20260508132033 67 230 8.7 16.5 0.00 0.00 0.00 57 1008.6
20260508131511 67 190 8.7 20.9 0.00 0.00 0.00 58 1008.4
20260508131037 66 190 7.0 20.9 0.00 0.00 0.00 58 1008.4
20260508130541 66 190 10.4 13.9 0.00 0.00 0.00 58 1008.6
20260508130025 66 190 3.5 15.6 0.00 0.00 0.00 59 1008.6
20260508125523 66 190 6.1 19.1 0.00 0.00 0.00 58 1008.8
20260508124029 66 190 7.0 18.2 0.00 0.00 0.00 57 1009.0
20260508123527 66 190 10.4 18.2 0.00 0.00 0.00 56 1009.0
20260508123032 66 190 9.6 15.6 0.00 0.00 0.00 57 1009.0
20260508122518 66 207 4.3 22.6 0.00 0.00 0.00 58 1009.0
20260508122023 66 190 10.4 22.6 0.00 0.00 0.00 57 1009.2
20260508121521 66 190 8.7 16.5 0.00 0.00 0.00 57 1009.2
20260508121045 66 190 11.3 23.5 0.00 0.00 0.00 56 1009.2
20260508120017 66 190 9.6 19.1 0.00 0.00 0.00 56 1009.4
20260508115551 65 190 9.6 0.0 0.00 0.00 0.00 58 1009.3
20260508115100 65 190 8.7 19.1 0.00 0.00 0.00 58 1009.5
20260508114015 66 190 5.2 19.1 0.00 0.00 0.00 59 1009.6
20260508113533 66 190 9.6 19.1 0.00 0.00 0.00 57 1009.9
20260508113018 65 190 8.7 18.2 0.00 0.00 0.00 58 1009.6
20260508112551 65 190 7.0 17.4 0.00 0.00 0.00 60 1009.7
20260508112029 65 190 9.6 17.4 0.00 0.00 0.00 61 1009.7
20260508111512 65 190 7.0 11.3 0.00 0.00 0.00 63 1009.7
20260508111018 64 190 5.2 10.4 0.00 0.00 0.00 64 1009.7
20260508110516 63 190 6.1 10.4 0.00 0.00 0.00 66 1009.7
20260508110021 63 190 6.1 13.0 0.00 0.00 0.00 67 1009.8
20260508105530 63 190 7.0 13.0 0.00 0.00 0.00 68 1009.9
20260508105035 62 190 7.0 14.8 0.00 0.00 0.00 70 1010.0
20260508104513 62 190 6.1 14.8 0.00 0.00 0.00 70 1010.1
20260508104018 62 190 8.7 14.8 0.00 0.00 0.00 70 1010.1
20260508103525 62 190 9.6 14.8 0.00 0.00 0.00 70 1010.2
20260508103022 62 190 3.5 8.7 0.00 0.00 0.00 71 1010.2
20260508102026 62 190 284.2 284.2 0.00 0.00 0.00 72 1010.2
20260508101524 62 190 6.1 9.6 0.00 0.00 0.00 73 1010.3
20260508101022 61 190 5.2 10.4 0.00 0.00 0.00 71 1010.3
20260508100527 62 190 5.2 10.4 0.00 0.00 0.00 71 1010.2
20260508100025 62 136 3.5 10.4 0.00 0.00 0.00 71 1010.1
20260508095526 62 124 2.6 10.4 0.00 0.00 0.00 71 1010.1
20260508095024 61 190 3.5 10.4 0.00 0.00 0.00 71 1010.0
20260508094529 62 167 7.0 10.4 0.00 0.00 0.00 71 1010.1
20260508094027 61 190 3.5 9.6 0.00 0.00 0.00 71 1010.1
20260508093533 61 115 5.2 10.4 0.00 0.00 0.00 71 1010.2
20260508093010 61 226 6.1 10.4 0.00 0.00 0.00 71 1010.2
20260508092527 61 172 5.2 9.6 0.00 0.00 0.00 72 1010.3
20260508092025 61 147 5.2 7.8 0.00 0.00 0.00 72 1010.3
20260508091530 61 161 5.2 7.8 0.00 0.00 0.00 74 1010.2
20260508091015 61 110 1.7 6.1 0.00 0.00 0.00 74 1010.2
20260508090534 60 166 4.3 0.0 0.00 0.00 0.00 74 1010.2
20260508090020 60 126 4.3 7.0 0.00 0.00 0.00 75 1010.3
20260508085611 60 151 3.5 8.7 0.00 0.00 0.00 75 1010.3
20260508084513 60 190 4.3 8.7 0.00 0.00 0.00 74 1010.3
20260508084037 60 111 5.2 8.7 0.00 0.00 0.00 74 1010.4
20260508083515 60 157 5.2 8.7 0.00 0.00 0.00 74 1010.4
20260508083014 59 155 5.2 8.7 0.00 0.00 0.00 75 1010.3
20260508082530 59 135 2.6 8.7 0.00 0.00 0.00 75 1010.2
20260508082028 59 185 4.3 8.7 0.00 0.00 0.00 76 1010.3
20260508081532 59 126 5.2 7.8 0.00 0.00 0.00 75 1010.3
20260508081010 59 167 4.3 9.6 0.00 0.00 0.00 75 1010.3
20260508080510 59 185 5.2 9.6 0.00 0.00 0.00 74 1010.3
20260508080016 59 151 4.3 7.0 0.00 0.00 0.00 74 1010.2
20260508075525 59 206 2.6 7.0 0.00 0.00 0.00 75 1010.3
20260508075030 58 190 1.7 6.1 0.00 0.00 0.00 74 1010.3
20260508074533 58 190 4.3 7.0 0.00 0.00 0.00 73 1010.3
20260508074010 59 190 3.5 7.0 0.00 0.00 0.00 73 1010.2
20260508073529 59 155 4.3 7.0 0.00 0.00 0.00 73 1010.2
20260508073035 58 153 0.9 6.1 0.00 0.00 0.00 75 1010.2
20260508072531 58 190 3.5 6.1 0.00 0.00 0.00 75 1010.2
20260508072026 58 190 1.7 6.1 0.00 0.00 0.00 76 1010.2
20260508071531 58 190 0.9 7.8 0.00 0.00 0.00 76 1010.2
20260508071029 58 190 5.2 7.8 0.00 0.00 0.00 76 1010.1
20260508070534 58 208 4.3 7.0 0.00 0.00 0.00 77 1010.1
20260508070012 58 190 2.6 5.2 0.00 0.00 0.00 78 1010.1
20260508065549 57 190 3.5 5.2 0.00 0.00 0.00 78 1010.0
20260508065026 57 217 1.7 5.2 0.00 0.00 0.00 79 1010.0
20260508064532 57 234 1.7 5.2 0.00 0.00 0.00 79 1010.0
20260508064030 56 209 1.7 5.2 0.00 0.00 0.00 78 1010.1
20260508063533 56 195 2.6 5.2 0.00 0.00 0.00 78 1010.0
20260508063030 56 204 0.9 5.2 0.00 0.00 0.00 78 1009.9
20260508062519 56 234 2.6 5.2 0.00 0.00 0.00 78 1009.9
20260508062024 56 212 0.9 4.3 0.00 0.00 0.00 78 1009.9
20260508061522 56 216 1.7 5.2 0.00 0.00 0.00 78 1009.8
20260508060529 56 207 0.9 4.3 0.00 0.00 0.00 78 1009.9
20260508060033 56 214 1.7 4.3 0.00 0.00 0.00 78 1009.9
20260508055522 56 251 0.9 3.5 0.00 0.00 0.00 78 1009.9
20260508055025 56 209 0.9 2.6 0.00 0.00 0.00 78 1009.8
20260508054532 56 257 0.0 6.1 0.00 0.00 0.00 78 1009.7
20260508054030 56 257 2.6 6.1 0.00 0.00 0.00 78 1009.8
20260508053527 56 253 2.6 7.0 0.00 0.00 0.00 79 1009.7
20260508052528 56 264 4.3 7.0 0.00 0.00 0.00 79 1009.6
20260508052027 56 261 4.3 7.0 0.00 0.00 0.00 78 1009.5
20260508051533 57 272 5.2 7.0 0.00 0.00 0.00 77 1009.4
20260508051018 57 292 4.3 6.1 0.00 0.00 0.00 75 1009.3
20260508050028 57 215 0.9 2.6 0.00 0.00 0.00 74 1009.1
20260508045518 57 220 0.9 3.5 0.00 0.00 0.00 74 1009.1
20260508045044 57 220 0.9 3.5 0.00 0.00 0.00 74 1009.1
20260508044522 57 231 1.7 3.5 0.00 0.00 0.00 73 1009.0
20260508044035 57 237 1.7 2.6 0.00 0.00 0.00 73 1009.0
20260508043514 57 240 0.9 3.5 0.00 0.00 0.00 73 1009.0
20260508043037 57 243 0.9 4.3 0.00 0.00 0.00 73 1009.0
20260508042516 57 220 1.7 5.2 0.00 0.00 0.00 73 1009.0
20260508042015 58 204 1.7 5.2 0.00 0.00 0.00 73 1009.1
20260508041521 58 283 1.7 5.2 0.00 0.00 0.00 73 1009.2
20260508041050 58 203 0.9 4.3 0.00 0.00 0.00 73 1009.2
20260508040528 58 205 0.9 3.5 0.00 0.00 0.00 73 1009.2
20260508040014 58 205 0.9 4.3 0.00 0.00 0.00 73 1009.3
20260508035518 58 156 2.6 3.5 0.00 0.00 0.00 72 1009.3
20260508035015 58 178 1.7 4.3 0.00 0.00 0.00 72 1009.4
20260508034032 58 209 1.7 4.3 0.00 0.00 0.00 72 1009.5
20260508033524 58 162 0.9 2.6 0.00 0.00 0.00 71 1009.5
20260508033022 58 158 1.7 3.5 0.00 0.00 0.00 71 1009.5
20260508032511 58 151 1.7 3.5 0.00 0.00 0.00 71 1009.5
20260508032017 58 190 0.9 2.6 0.00 0.00 0.00 71 1009.5
20260508031544 58 190 0.9 2.6 0.00 0.00 0.00 71 1009.5
20260508031021 58 190 0.9 2.6 0.00 0.00 0.00 71 1009.7
20260508030526 58 190 0.0 1.7 0.00 0.00 0.00 71 1009.7
20260508030024 58 190 0.9 2.6 0.00 0.00 0.00 71 1009.5
20260508025520 57 190 0.9 3.5 0.00 0.00 0.00 71 1009.5
20260508025024 57 190 1.7 2.6 0.00 0.00 0.00 71 1009.5
20260508024523 57 190 1.7 3.5 0.00 0.00 0.00 71 1009.5
20260508024028 57 190 2.6 3.5 0.00 0.00 0.00 71 1009.5
20260508023540 57 190 1.7 2.6 0.00 0.00 0.00 71 1009.6
20260508023022 57 190 0.9 1.7 0.00 0.00 0.00 71 1009.5
20260508022510 57 190 0.0 0.9 0.00 0.00 0.00 71 1009.5
20260508022015 57 190 0.0 0.0 0.00 0.00 0.00 71 1009.5
20260508021518 57 190 0.0 0.0 0.00 0.00 0.00 70 1009.7
20260508021023 57 190 0.0 0.0 0.00 0.00 0.00 71 1009.7
20260508020520 57 190 0.0 0.0 0.00 0.00 0.00 71 1009.8
20260508020011 57 190 0.0 0.0 0.00 0.00 0.00 71 1009.9
20260508015528 57 190 0.0 0.9 0.00 0.00 0.00 71 1009.9
20260508015025 57 190 0.0 1.7 0.00 0.00 0.00 71 1010.0
20260508014523 58 190 0.9 1.7 0.00 0.00 0.00 71 1010.1
20260508014028 58 190 0.0 0.9 0.00 0.00 0.00 71 1010.1
20260508013525 58 190 0.0 0.9 0.00 0.00 0.00 71 1010.2
20260508013010 57 190 0.0 0.0 0.00 0.00 0.00 71 1010.2
20260508012547 58 190 0.0 0.0 0.00 0.00 0.00 71 1010.1
20260508012051 57 190 0.0 0.0 0.00 0.00 0.00 71 1010.2
20260508011554 57 190 0.0 0.0 0.00 0.00 0.00 71 1010.2
20260508011011 57 190 0.0 0.9 0.00 0.00 0.00 71 1010.5
20260508010510 57 190 0.0 0.9 0.00 0.00 0.00 71 1010.5
20260508010016 57 190 0.0 0.9 0.00 0.00 0.00 71 1010.5
20260508005514 57 190 0.0 0.0 0.00 0.00 0.00 71 1010.6
20260508005013 57 190 0.0 0.0 0.00 0.00 0.00 71 1010.6
20260508004026 57 190 0.0 0.9 0.00 0.00 0.00 71 1010.6
20260508003531 57 190 0.0 0.9 0.00 0.00 0.00 71 1010.7
20260508003029 57 190 0.0 0.9 0.00 0.00 0.00 71 1010.7
20260508002518 57 190 0.0 1.7 0.00 0.00 0.00 71 1010.7
20260508002023 57 190 0.0 1.7 0.00 0.00 0.00 71 1010.7
20260508001527 57 190 0.0 1.7 0.00 0.00 0.00 71 1010.6
20260508000519 57 190 0.0 1.7 0.00 0.00 0.00 71 1010.6
20260508000045 57 190 0.0 0.0 0.00 0.00 0.00 71 1010.7
20260507235025 57 190 0.0 1.7 0.00 0.00 0.00 72 1010.6
20260507234523 57 190 0.0 0.0 0.00 0.00 0.00 72 1010.6
20260507234027 57 190 0.0 3.5 0.00 0.00 0.00 72 1010.6
20260507233552 57 190 0.0 3.5 0.00 0.00 0.00 72 1010.7
20260507233030 57 190 1.7 3.5 0.00 0.00 0.00 72 1010.6
20260507232546 57 190 1.7 3.5 0.00 0.00 0.00 72 1010.7
20260507232046 57 190 1.7 3.5 0.00 0.00 0.00 72 1010.8
20260507231523 57 190 0.0 2.6 0.00 0.00 0.00 72 1010.8
20260507231019 57 190 0.9 2.6 0.00 0.00 0.00 72 1010.8
20260507230523 57 190 0.9 2.6 0.00 0.00 0.00 72 1011.0
20260507230021 57 190 0.0 0.9 0.00 0.00 0.00 72 1011.1
20260507225516 57 190 0.0 0.9 0.00 0.00 0.00 72 1011.1
20260507225013 57 190 0.0 1.7 0.00 0.00 0.00 72 1011.1
20260507224512 57 190 0.0 1.7 0.00 0.00 0.00 71 1011.0
20260507224017 57 190 0.9 3.5 0.00 0.00 0.00 71 1011.1
20260507223515 58 190 1.7 3.5 0.00 0.00 0.00 71 1011.1
20260507223041 58 190 0.9 1.7 0.00 0.00 0.00 71 1011.2
20260507222536 58 190 0.9 1.7 0.00 0.00 0.00 71 1011.2
20260507222014 58 190 0.0 3.5 0.00 0.00 0.00 71 1011.3
20260507221540 58 190 1.7 3.5 0.00 0.00 0.00 70 1011.2
20260507221024 58 190 0.0 5.2 0.00 0.00 0.00 70 1011.3
20260507220529 58 190 2.6 6.1 0.00 0.00 0.00 70 1011.3
20260507220026 58 190 2.6 7.0 0.00 0.00 0.00 70 1011.2
20260507215522 58 190 3.5 7.0 0.00 0.00 0.00 70 1011.2
20260507215019 58 190 4.3 7.8 0.00 0.00 0.00 70 1011.3
20260507214020 58 190 3.5 9.6 0.00 0.00 0.00 70 1011.3
20260507213518 58 190 6.1 9.6 0.00 0.00 0.00 70 1011.3
20260507213025 58 190 6.1 9.6 0.00 0.00 0.00 70 1011.3
20260507212519 58 190 6.1 11.3 0.00 0.00 0.00 69 1011.3
20260507212043 58 190 7.0 11.3 0.00 0.00 0.00 69 1011.3
20260507211540 58 190 7.0 12.2 0.00 0.00 0.00 69 1011.3
20260507211023 58 190 7.0 12.2 0.00 0.00 0.00 69 1011.3
20260507210525 58 190 7.0 12.2 0.00 0.00 0.00 69 1011.3
20260507210029 58 190 7.8 13.0 0.00 0.00 0.00 69 1011.3
20260507205548 58 190 8.7 13.0 0.00 0.00 0.00 69 1011.2
20260507205012 58 190 7.0 10.4 0.00 0.00 0.00 69 1011.4
20260507204539 58 190 6.1 10.4 0.00 0.00 0.00 69 1011.4
20260507204016 58 190 5.2 12.2 0.00 0.00 0.00 69 1011.3
20260507203514 58 190 8.7 12.2 0.00 0.00 0.00 69 1011.3
20260507203040 58 190 8.7 13.0 0.00 0.00 0.00 69 1011.2
20260507202514 58 190 8.7 13.0 0.00 0.00 0.00 69 1011.2
20260507202012 58 190 7.0 12.2 0.00 0.00 0.00 69 1011.1
20260507201510 59 190 7.0 11.3 0.00 0.00 0.00 69 1011.1
20260507201021 59 190 6.1 13.0 0.00 0.00 0.00 68 1011.1
20260507195519 59 190 7.8 12.2 0.00 0.00 0.00 67 1010.9
20260507195105 59 190 284.2 284.2 0.00 0.00 0.00 66 1010.6
20260507194030 59 190 7.8 13.0 0.00 0.00 0.00 65 1010.8
20260507193535 59 190 8.7 13.0 0.00 0.00 0.00 65 1010.8
20260507193013 59 190 7.0 13.9 0.00 0.00 0.00 65 1010.8
20260507192530 59 190 9.6 13.9 0.00 0.00 0.00 65 1010.8
20260507192049 59 190 7.8 14.8 0.00 0.00 0.00 65 1010.7
20260507191534 59 190 10.4 14.8 0.00 0.00 0.00 64 1010.7
20260507191010 59 190 7.8 13.0 0.00 0.00 0.00 64 1010.6
20260507190516 59 190 7.0 13.9 0.00 0.00 0.00 65 1010.6
20260507190014 59 190 7.0 14.8 0.00 0.00 0.00 65 1010.6
20260507185532 59 190 9.6 14.8 0.00 0.00 0.00 64 1010.5
20260507185037 60 190 9.6 13.0 0.00 0.00 0.00 64 1010.5
20260507184515 60 190 7.8 12.2 0.00 0.00 0.00 65 1010.5
20260507184014 60 190 7.8 13.0 0.00 0.00 0.00 66 1010.4
20260507183540 60 190 7.8 13.0 0.00 0.00 0.00 66 1010.3
20260507183024 60 190 7.0 12.2 0.00 0.00 0.00 66 1010.4
20260507182520 60 190 7.8 13.9 0.00 0.00 0.00 65 1010.4
20260507182029 60 190 9.6 13.9 0.00 0.00 0.00 65 1010.4
20260507181535 60 190 8.7 14.8 0.00 0.00 0.00 64 1010.5
20260507181013 60 190 8.7 14.8 0.00 0.00 0.00 64 1010.5
20260507180539 60 190 10.4 14.8 0.00 0.00 0.00 63 1010.4
20260507180038 61 190 9.6 13.0 0.00 0.00 0.00 62 1010.4
20260507175520 61 190 8.7 13.9 0.00 0.00 0.00 62 1010.4
20260507174521 61 190 7.0 14.8 0.00 0.00 0.00 60 1010.2
20260507174039 61 190 10.4 14.8 0.00 0.00 0.00 59 1010.1
20260507173523 62 190 9.6 14.8 0.00 0.00 0.00 58 1010.2
20260507173021 62 190 8.7 13.0 0.00 0.00 0.00 56 1010.2
20260507172516 62 190 7.8 13.0 0.00 0.00 0.00 55 1010.3
20260507172014 62 190 7.0 13.0 0.00 0.00 0.00 55 1010.2
20260507171613 62 190 9.6 13.9 0.00 0.00 0.00 55 1010.2
20260507171026 63 190 7.8 13.9 0.00 0.00 0.00 54 1010.2
20260507170524 63 190 10.4 13.9 0.00 0.00 0.00 54 1010.2
20260507170029 63 190 6.1 13.9 0.00 0.00 0.00 54 1010.1
20260507165518 64 345 8.7 13.0 0.00 0.00 0.00 52 1010.1
20260507165023 64 289 5.2 13.0 0.00 0.00 0.00 50 1010.1
20260507164521 64 288 8.7 13.0 0.00 0.00 0.00 48 1010.1
20260507164017 64 190 9.6 13.0 0.00 0.00 0.00 49 1010.2
20260507163628 64 251 8.7 13.9 0.00 0.00 0.00 48 1010.1
20260507163020 64 309 8.7 13.9 0.00 0.00 0.00 48 1010.1
20260507162516 64 321 9.6 14.8 0.00 0.00 0.00 47 1010.2
20260507162014 64 295 8.7 14.8 0.00 0.00 0.00 49 1010.2
20260507161540 64 349 9.6 16.5 0.00 0.00 0.00 50 1010.1
20260507161016 64 190 9.6 16.5 0.00 0.00 0.00 50 1010.1
20260507160043 64 285 8.7 18.2 0.00 0.00 0.00 49 1010.1
20260507155530 64 313 7.8 18.2 0.00 0.00 0.00 49 1010.0
20260507155012 65 281 6.1 13.0 0.00 0.00 0.00 46 1010.0
20260507154510 64 295 7.0 15.6 0.00 0.00 0.00 46 1010.0
20260507154016 65 286 7.8 15.6 0.00 0.00 0.00 47 1010.1
20260507153013 65 298 9.6 13.0 0.00 0.00 0.00 49 1010.0
20260507152526 65 309 7.0 15.6 0.00 0.00 0.00 50 1010.1
20260507152024 65 328 9.6 15.6 0.00 0.00 0.00 51 1010.1
20260507151549 65 343 7.8 15.6 0.00 0.00 0.00 51 1010.2
20260507151033 65 288 7.8 13.9 0.00 0.00 0.00 51 1010.2
20260507150558 65 311 7.0 12.2 0.00 0.00 0.00 51 1010.1
20260507145525 64 190 5.2 13.9 0.00 0.00 0.00 52 1010.3
20260507145030 64 190 8.7 13.9 0.00 0.00 0.00 51 1010.2
20260507144528 64 190 6.1 11.3 0.00 0.00 0.00 52 1010.2
20260507144027 64 190 7.0 10.4 0.00 0.00 0.00 52 1010.3
20260507143532 64 190 7.0 10.4 0.00 0.00 0.00 52 1010.3
20260507143010 65 190 4.3 8.7 0.00 0.00 0.00 52 1010.4